Location: Most
(50.5133°N, 13.6207°E)
Time: 05:56:39
(UTC+02:00)

ISS - Pass Details

Date: 10 April 2018
Orbit: 403 x 406 km, 51.6° (Epoch: 23 April)

Event Time Altitude Azimuth Distance (km) Brightness Sun altitude
Rises 20:20:18 0° 285° (WNW) 2,334 2.8 -5.1°
Reaches altitude 10° 20:22:37 10° 271° (W) 1,471 0.5 -5.5°
Maximum altitude 20:25:21 24° 215° (SW) 882 -1.9 -5.9°
Drops below altitude 10° 20:28:05 10° 158° (SSE) 1,464 -1.4 -6.3°
Enters shadow 20:29:30 - 148° (SSE) 1,978 -0.8 -6.5°
